• In Germany
  • List of Countries
  • For 7 days
  • Water Temperature
  • Satellite Maps
  • Weather Map
  • Weather Widgets
  • user-avatar
    Login

    Hourly Weather Eibenstock

    Today, 25 November, Saturday

    Time Temperature Precipitation Wind Pressure Humidity
    00:00 +5°C° 0.5 mm 3 mps 701 mmHg 94%
    01:00 +5°C° 0 mm 3 mps 701 mmHg 94%
    02:00 +5°C° 0.4 mm 3 mps 701 mmHg 94%
    03:00 +5°C° 0.4 mm 3 mps 700 mmHg 93%
    04:00 +5°C° 0.4 mm 3 mps 700 mmHg 93%
    05:00 +6°C° 0.3 mm 2 mps 699 mmHg 93%
    06:00 +6°C° 0.3 mm 2 mps 698 mmHg 94%
    07:00 +6°C° 0.3 mm 2 mps 697 mmHg 95%
    08:00 +6°C° 2.1 mm 2 mps 697 mmHg 95%
    09:00 +5°C° 2.1 mm 2 mps 697 mmHg 95%
    10:00 +5°C° 2.1 mm 2 mps 697 mmHg 95%
    11:00 +4°C° 1.2 mm 3 mps 697 mmHg 93%
    12:00 +4°C° 1.2 mm 3 mps 697 mmHg 92%
    13:00 +4°C° 1.2 mm 3 mps 697 mmHg 91%
    14:00 +4°C° 0.4 mm 4 mps 697 mmHg 89%
    15:00 +3°C° 0.4 mm 5 mps 698 mmHg 87%
    16:00 +2°C° 0.4 mm 5 mps 698 mmHg 85%
    17:00 +2°C° 0.2 mm 5 mps 699 mmHg 85%
    18:00 +1°C° 0.2 mm 5 mps 699 mmHg 86%
    19:00 0°C° 0.2 mm 5 mps 700 mmHg 86%
    20:00 -1°C° 0 mm 4 mps 700 mmHg 87%
    21:00 0°C° 0 mm 3 mps 701 mmHg 87%
    22:00 -1°C° 0 mm 3 mps 702 mmHg 88%
    23:00 -1°C° 0 mm 3 mps 702 mmHg 89%

    Tomorrow, 26 November, Sunday

    Time Temperature Precipitation Wind Pressure Humidity
    00:00 -1°C° 0 mm 3 mps 702 mmHg 90%
    01:00 -1°C° 0 mm 3 mps 703 mmHg 91%
    02:00 -2°C° 0 mm 3 mps 703 mmHg 91%
    03:00 -2°C° 0 mm 3 mps 704 mmHg 91%
    04:00 -2°C° 0 mm 3 mps 704 mmHg 91%
    05:00 -2°C° 0.1 mm 3 mps 705 mmHg 89%
    06:00 -3°C° 0.1 mm 4 mps 705 mmHg 88%
    07:00 -3°C° 0.1 mm 4 mps 705 mmHg 86%
    08:00 -3°C° 0 mm 4 mps 706 mmHg 84%
    09:00 -2°C° 0 mm 4 mps 706 mmHg 82%
    10:00 -2°C° 0 mm 5 mps 707 mmHg 80%
    11:00 -2°C° 0 mm 5 mps 707 mmHg 78%
    12:00 -1°C° 0 mm 5 mps 707 mmHg 76%
    13:00 -1°C° 0 mm 5 mps 707 mmHg 75%
    14:00 -1°C° 0 mm 5 mps 707 mmHg 76%
    15:00 -2°C° 0 mm 5 mps 707 mmHg 78%
    16:00 -2°C° 0 mm 5 mps 707 mmHg 79%
    17:00 -2°C° 0 mm 4 mps 708 mmHg 80%
    18:00 -2°C° 0 mm 4 mps 708 mmHg 81%
    19:00 -3°C° 0 mm 4 mps 708 mmHg 82%
    20:00 -3°C° 0 mm 4 mps 708 mmHg 83%
    21:00 -3°C° 0 mm 4 mps 708 mmHg 85%
    22:00 -3°C° 0 mm 4 mps 708 mmHg 86%
    23:00 -3°C° 0 mm 4 mps 709 mmHg 86%

    Day after tomorrow, 27 November, Monday

    Time Temperature Precipitation Wind Pressure Humidity
    00:00 -3°C° 0 mm 4 mps 709 mmHg 86%
    01:00 -3°C° 0 mm 4 mps 709 mmHg 85%
    02:00 -3°C° 0 mm 4 mps 709 mmHg 86%
    03:00 -3°C° 0 mm 4 mps 709 mmHg 86%
    04:00 -4°C° 0 mm 4 mps 709 mmHg 87%
    05:00 -4°C° 0 mm 4 mps 709 mmHg 86%
    06:00 -4°C° 0 mm 4 mps 709 mmHg 86%
    07:00 -4°C° 0 mm 4 mps 709 mmHg 86%
    08:00 -4°C° 0 mm 5 mps 709 mmHg 84%
    09:00 -4°C° 0 mm 5 mps 709 mmHg 81%
    10:00 -4°C° 0 mm 5 mps 709 mmHg 78%
    11:00 -2°C° 0 mm 5 mps 709 mmHg 77%
    12:00 -3°C° 0 mm 6 mps 709 mmHg 76%
    13:00 -2°C° 0 mm 6 mps 708 mmHg 75%
    14:00 -3°C° 0 mm 6 mps 708 mmHg 76%
    15:00 -3°C° 0 mm 6 mps 707 mmHg 78%
    16:00 -2°C° 0 mm 5 mps 707 mmHg 79%
    17:00 -3°C° 0 mm 6 mps 706 mmHg 80%
    18:00 -3°C° 0 mm 6 mps 706 mmHg 81%
    19:00 -3°C° 0 mm 6 mps 706 mmHg 81%
    20:00 -3°C° 0 mm 6 mps 705 mmHg 81%
    21:00 -3°C° 0 mm 6 mps 705 mmHg 80%
    22:00 -3°C° 0 mm 6 mps 704 mmHg 80%
    23:00 -3°C° 0 mm 6 mps 704 mmHg 80%

    28 November, Tuesday

    Time Temperature Precipitation Wind Pressure Humidity
    00:00 -3°C° 0 mm 6 mps 703 mmHg 80%
    01:00 -3°C° 0 mm 6 mps 703 mmHg 80%
    02:00 -3°C° 0 mm 6 mps 702 mmHg 79%
    03:00 -3°C° 0 mm 6 mps 701 mmHg 78%
    04:00 -3°C° 0 mm 6 mps 701 mmHg 77%
    05:00 -3°C° 0 mm 6 mps 700 mmHg 75%
    06:00 -3°C° 0 mm 6 mps 700 mmHg 73%
    07:00 -3°C° 0 mm 6 mps 699 mmHg 72%
    08:00 -3°C° 0 mm 6 mps 699 mmHg 69%
    09:00 -3°C° 0 mm 6 mps 699 mmHg 66%
    10:00 -2°C° 0 mm 6 mps 698 mmHg 63%
    11:00 -2°C° 0 mm 6 mps 698 mmHg 64%
    12:00 -1°C° 0 mm 7 mps 697 mmHg 64%
    13:00 -1°C° 0 mm 7 mps 697 mmHg 64%
    14:00 -1°C° 0 mm 7 mps 696 mmHg 68%
    15:00 -1°C° 0 mm 6 mps 696 mmHg 72%
    16:00 -1°C° 0 mm 6 mps 696 mmHg 76%
    17:00 -2°C° 0 mm 6 mps 696 mmHg 78%
    18:00 -2°C° 0 mm 6 mps 696 mmHg 80%
    19:00 -2°C° 0 mm 6 mps 696 mmHg 82%
    20:00 -1°C° 0 mm 5 mps 696 mmHg 83%
    21:00 -1°C° 0 mm 5 mps 696 mmHg 85%
    22:00 -2°C° 0 mm 4 mps 696 mmHg 86%
    23:00 -2°C° 0 mm 4 mps 696 mmHg 87%

    29 November, Wednesday

    Time Temperature Precipitation Wind Pressure Humidity
    00:00 -2°C° 0 mm 4 mps 696 mmHg 87%
    01:00 -2°C° 0 mm 4 mps 696 mmHg 88%
    02:00 -2°C° 0 mm 4 mps 696 mmHg 88%
    03:00 -2°C° 0 mm 4 mps 696 mmHg 88%
    04:00 -3°C° 0 mm 4 mps 695 mmHg 89%
    05:00 -3°C° 0 mm 4 mps 695 mmHg 87%
    06:00 -3°C° 0 mm 4 mps 695 mmHg 86%
    07:00 -3°C° 0 mm 4 mps 695 mmHg 84%
    08:00 -2°C° 0 mm 4 mps 695 mmHg 82%
    09:00 -2°C° 0 mm 5 mps 695 mmHg 80%
    10:00 -2°C° 0 mm 5 mps 696 mmHg 78%
    11:00 -2°C° 0 mm 5 mps 695 mmHg 77%
    12:00 -2°C° 0 mm 5 mps 695 mmHg 75%
    13:00 -1°C° 0 mm 5 mps 695 mmHg 73%
    14:00 -2°C° 0 mm 5 mps 695 mmHg 75%
    15:00 -2°C° 0 mm 4 mps 695 mmHg 76%
    16:00 -2°C° 0 mm 4 mps 695 mmHg 78%
    17:00 -3°C° 0 mm 4 mps 694 mmHg 80%
    18:00 -3°C° 0 mm 4 mps 694 mmHg 82%
    19:00 -3°C° 0 mm 4 mps 694 mmHg 84%
    20:00 -3°C° 0 mm 4 mps 694 mmHg 83%
    21:00 -4°C° 0 mm 5 mps 694 mmHg 83%
    22:00 -4°C° 0 mm 5 mps 694 mmHg 83%
    23:00 -4°C° 0 mm 5 mps 694 mmHg 83%

    30 November, Thursday

    Time Temperature Precipitation Wind Pressure Humidity
    00:00 -4°C° 0 mm 5 mps 694 mmHg 84%
    01:00 -4°C° 0 mm 5 mps 694 mmHg 85%
    02:00 -3°C° 0.1 mm 4 mps 694 mmHg 87%
    03:00 -2°C° 0.1 mm 3 mps 694 mmHg 88%
    04:00 -2°C° 0.1 mm 3 mps 694 mmHg 90%
    05:00 -4°C° 0.1 mm 3 mps 694 mmHg 91%
    06:00 -4°C° 0.1 mm 3 mps 694 mmHg 91%
    07:00 -3°C° 0.1 mm 2 mps 694 mmHg 92%
    08:00 -4°C° 0 mm 3 mps 694 mmHg 88%
    09:00 -2°C° 0 mm 3 mps 695 mmHg 84%
    10:00 -3°C° 0 mm 4 mps 695 mmHg 81%
    11:00 -2°C° 0 mm 4 mps 695 mmHg 77%
    12:00 -2°C° 0 mm 4 mps 695 mmHg 74%
    13:00 -1°C° 0 mm 4 mps 694 mmHg 71%
    14:00 -1°C° 0.1 mm 3 mps 694 mmHg 75%
    15:00 -1°C° 0.1 mm 3 mps 694 mmHg 79%
    16:00 -2°C° 0.1 mm 3 mps 694 mmHg 82%
    17:00 -2°C° 0 mm 3 mps 694 mmHg 83%
    18:00 -4°C° 0 mm 3 mps 695 mmHg 85%
    19:00 -4°C° 0 mm 3 mps 695 mmHg 86%
    20:00 -5°C° 0 mm 3 mps 695 mmHg 87%
    21:00 -5°C° 0 mm 3 mps 695 mmHg 88%
    22:00 -6°C° 0 mm 3 mps 695 mmHg 89%
    23:00 -6°C° 0 mm 3 mps 695 mmHg 89%
    Show more